Regional Weather Roundup
Issued by NWS Jackson, KY

Home | Current Version | Previous Version | Text Only | Print | Product List | Glossary Off
Versions: 1 2 3 4 5 6 7 8 9 10 11 12 13 14 15 16 17 18 19 20 21 22 23 24 25 26 27 28 29 30 31 32 33 34 35 36 37 38 39 40 41 42 43 44 45 46 47 48 49 50

000
ASUS43 KJKL 280910
RWRJKL

EAST KENTUCKY HOURLY WEATHER ROUNDUP
NATIONAL WEATHER SERVICE JACKSON KY
500 AM EDT TUE MAR 28 2017

NOTE: "FAIR" INDICATES FEW OR NO CLOUDS BELOW 12,000 FEET WITH
NO SIGNIFICANT WEATHER AND/OR OBSTRUCTIONS TO VISIBILITY.

* THESE REPORTS ARE NOT UNDER NWS QUALITY CONTROL AND MAY NOT
  REPORT WEATHER SUCH AS PRECIPITATION AND FOG.

KYZ079-080-083-085-087-088-110-112-115-119-120-281000
...EASTERN KENTUCKY...

CITY           SKY/WX    TMP DP  RH WIND       PRES   REMARKS
JACKSON        CLOUDY    55  54  96 VRB3      29.85S
LONDON         CLOUDY    57  52  83 SW9       29.87R
SOMERSET*      CLOUDY    54  54 100 W6        29.90R
MONTICELLO*    LGT RAIN  57  55  93 W6        29.90R
WILLIAMSBURG*  CLOUDY    55  55 100 W5        29.88S
MIDDLESBORO*   PTCLDY    57  54  89 CALM      29.89S
HARLAN APT*    CLOUDY    54  52  94 CALM      29.89R
PIKE CO APT*   CLOUDY    56  56  99 CALM      29.85S
BIG SANDY APT* CLOUDY    55  55 100 CALM      29.85S
MOREHEAD APT*  CLOUDY    55  54  94 CALM      29.86F
ASHLAND*       CLOUDY    50  50 100 CALM      29.82S
$$

KYZ035-036-041-042-044-050-067-078-099-281000
...CENTRAL KENTUCKY...

CITY           SKY/WX    TMP DP  RH WIND       PRES   REMARKS
MT STERLING*   CLOUDY    54  54 100 W5        29.86S
FLEMING/MASON* CLOUDY    55  54  97 SW6       29.85S
DANVILLE*      MOCLDY    54  52  94 S3        29.87S
LEXINGTON      CLOUDY    56  53  90 SW6       29.85S
FRANKFORT      CLOUDY    55  52  89 SW7       29.85R
LOUISVILLE     CLOUDY    57  54  89 W7        29.86R
LEBANON*         N/A     54  54 100 S5        29.87S
GLASGOW*       MOCLDY   N/A N/A N/A CALM      29.89R FOG
BOWLING GREEN  CLOUDY    56  54  93 NW3       29.89R
$$

KYZ091>093-OHZ055-061-077-WVZ005-015-034-035-042-281000
...SOUTHERN OHIO/WEST VIRGINIA...

CITY           SKY/WX    TMP DP  RH WIND       PRES   REMARKS
COVINGTON      CLOUDY    55  54  96 SW5       29.83S
COLUMBUS       CLOUDY    57  56  96 SW3       29.82F FOG
DAYTON         LGT RAIN  55  55 100 CALM      29.83S FOG
WILMINGTON     CLOUDY    55  55 100 CALM      29.82S
HUNTINGTON     CLOUDY    55  54  96 CALM      29.83F
CHARLESTON     LGT RAIN  55  54  96 CALM      29.83F
PINEVILLE*     CLOUDY    54  52  90 MISG      29.91S FOG
BECKLEY        LGT RAIN  54  50  86 S7        29.87F
BLUEFIELD      CLOUDY    54  48  80 SW6       29.89F
LOGAN CO APT*  LGT RAIN  57  54  88 CALM      29.85S
$$

VAZ002-007-008-TNZ017-027-036-066-071-281000
...SOUTHWEST VIRGINIA/EAST TENNESSEE...

CITY           SKY/WX    TMP DP  RH WIND       PRES   REMARKS
WISE*          CLOUDY    54  52  94 SW10      29.89S
JONESVILLE*      N/A     54  54 100 CALM      29.91S
ABINGDON*      CLOUDY    56  56 100 NW3       29.89F
BRISTOL        CLOUDY    54  53  97 CALM      29.88F FOG
MORRISTOWN*    CLOUDY    55  55 100 CALM      29.87F FOG
SEVIERVILLE*   MOSUNNY   55  54  94 W6        29.88S
KNOXVILLE      MOCLDY    57  55  93 W8        29.88S
LAFOLLETTE*    SUNNY     54  52  94 CALM      29.91R
OAK RIDGE      CLOUDY    57  54  89 VRB3      29.91S
CROSSVILLE     CLEAR     54  52  93 VRB3      29.91S
NASHVILLE      CLOUDY    58  57  97 W6        29.91R
$$

...KEY TO REMARKS...
VSB - VISIBILITY IN MILES
WCI - WIND CHILL INDEX
HX  - HEAT INDEX

$$



USA.gov is the U.S. government's official web portal to all federal, state and local government web resources and services.